[[{"header":{"parameterUnit":"m.s-1","parameterCategory":1,"la1":30.2991,"la2":30.254,"lo1":-89.0895,"lo2":-89.0444,"dy":0.0017,"dx":0.0017,"nx":28,"ny":28,"refTime":"2025-11-06T03:00:00:Z","depth":0,"parameterNumber":2,"parameterNumberName":"U-component_of_WINDS"},"data":[0,0,0,0,0,0,0,0,0,0,0,0,0,0,0,0,0,0,0,0,0,0,0,0,0,0,0,0,0,0,0,0,0,0,0,0,0,0,0,0,0,0,0,0,0,0,0,0,0,0,0,0,0,0,0,0,0,0,-0.2094,-0.2094,0,-0.2065,-0.2064,-0.2064,-0.2044,-0.2044,-0.2043,-0.2043,-0.2012,-0.2011,-0.2011,0,0,0,0,0,0,0,0,0,0,0,0,0,-0.2131,-0.213,-0.2094,-0.2094,-0.2093,-0.2065,-0.2064,-0.2064,-0.2044,-0.2044,-0.2043,-0.2043,-0.2012,-0.2012,-0.2011,0,0,0,0,0,0,0,0,0,0,0,0,0,-0.2109,-0.213,-0.2094,-0.208,-0.2078,-0.2065,-0.2064,-0.2064,-0.2044,-0.2044,-0.2043,-0.2043,-0.2013,-0.2012,-0.2011,-0.2009,0,0,-0.2007,-0.2007,0,0,0,0,0,0,0,0,-0.2111,-0.2108,-0.2082,-0.2081,-0.2079,-0.2058,-0.2066,-0.2045,-0.2044,-0.2057,-0.2043,-0.2043,-0.2027,-0.2025,-0.202,-0.2007,-0.2006,-0.2007,-0.2007,-0.2006,-0.2006,0,0,0,0,0,0,0,-0.2112,-0.2109,-0.2082,-0.2082,-0.208,-0.2074,-0.2071,-0.2062,-0.2044,-0.2056,-0.2054,-0.2051,-0.2026,-0.2021,-0.2019,-0.2005,-0.2007,-0.2006,-0.2006,-0.2005,-0.1986,-0.1986,0,0,0,0,0,0,-0.2116,-0.2111,-0.2083,-0.2082,-0.2095,-0.2074,-0.207,-0.2065,-0.2044,-0.204,-0.2051,-0.205,-0.2023,-0.202,-0.2018,-0.2013,-0.2006,-0.2005,-0.2005,-0.1986,-0.1986,-0.1987,0,0,0,0,0,0,-0.2117,-0.2114,-0.2085,-0.2096,-0.2091,-0.2073,-0.2067,-0.2064,-0.2059,-0.204,-0.2037,-0.2049,-0.2023,-0.2019,-0.201,-0.2011,-0.2005,-0.2004,-0.1986,-0.1986,-0.1986,-0.2003,0,0,0,0,0,0,-0.2118,-0.2114,-0.2114,-0.2096,-0.2091,-0.2078,-0.2068,-0.2064,-0.2057,-0.2056,-0.2038,-0.2034,-0.2022,-0.2012,-0.2009,-0.201,-0.2003,-0.1986,-0.1986,-0.1986,-0.2002,-0.2004,-0.2005,0,0,0,0,0,-0.212,-0.212,-0.2114,-0.2111,-0.209,-0.2079,-0.2076,-0.2062,-0.2057,-0.2056,-0.2044,-0.2035,-0.2012,-0.2011,-0.2008,-0.2008,-0.1986,-0.1986,-0.1986,-0.2002,-0.2003,-0.2005,0,0,0,0,0,0,-0.2139,-0.2118,-0.2111,-0.2106,-0.2094,-0.2075,-0.2074,-0.2065,-0.2054,-0.2053,-0.2036,-0.2032,-0.2024,-0.2015,-0.2016,-0.2004,-0.1997,-0.1997,-0.201,-0.2012,-0.2013,-0.2015,-0.2002,0,0,0,0,0,-0.2143,-0.2136,-0.2117,-0.2114,-0.2109,-0.2092,-0.2087,-0.2077,-0.2064,-0.2059,-0.2046,-0.2034,-0.2023,-0.2017,-0.2007,-0.2001,-0.1995,-0.1999,-0.2,-0.2001,-0.2001,-0.1995,-0.1996,-0.1987,-0.1987,-0.1987,0,0,-0.2151,-0.2138,-0.2135,-0.2118,-0.2108,-0.21,-0.2088,-0.2081,-0.2074,-0.2058,-0.2048,-0.2038,-0.2023,-0.2015,-0.2011,-0.2007,-0.2002,-0.2002,-0.2003,-0.2002,-0.1995,-0.1996,-0.1997,-0.1988,-0.1988,-0.1988,0,0,-0.2161,-0.2151,-0.2147,-0.2136,-0.2121,-0.211,-0.2109,-0.2091,-0.2083,-0.2073,-0.206,-0.2052,-0.2035,-0.2024,-0.2016,-0.2019,-0.201,-0.2016,-0.2023,-0.2018,-0.2018,-0.2019,-0.2019,-0.2019,-0.2016,-0.2016,-0.2016,0,-0.2172,-0.216,-0.2146,-0.2138,-0.2131,-0.2115,-0.211,-0.21,-0.2082,-0.2077,-0.2073,-0.205,-0.2039,-0.2027,-0.2027,-0.2022,-0.2019,-0.2018,-0.2019,-0.202,-0.202,-0.202,-0.202,-0.2017,-0.2017,-0.2017,-0.2017,0,-0.2174,-0.2166,-0.2164,-0.2147,-0.2139,-0.2133,-0.2116,-0.211,-0.21,-0.2089,-0.2078,-0.2063,-0.2049,-0.2045,-0.2036,-0.2031,-0.2029,-0.2023,-0.2016,-0.2022,-0.2021,-0.2021,-0.2018,-0.2018,-0.2018,-0.2018,0,0,-0.2197,-0.217,-0.217,-0.2161,-0.2142,-0.2134,-0.2127,-0.2112,-0.2106,-0.2094,-0.2086,-0.2071,-0.2064,-0.2055,-0.2044,-0.204,-0.2041,-0.2033,-0.2032,-0.2034,-0.2033,-0.2038,-0.2038,-0.2034,-0.2034,-0.2034,-0.2034,0,-0.2203,-0.2189,-0.2175,-0.2165,-0.2156,-0.214,-0.2133,-0.212,-0.2109,-0.2099,-0.2086,-0.2075,-0.2067,-0.2061,-0.2056,-0.2042,-0.204,-0.2042,-0.2026,-0.2026,-0.203,-0.2038,-0.2043,-0.2044,-0.2034,-0.2034,-0.2034,0,-0.2209,-0.2196,-0.2186,-0.2166,-0.2162,-0.2156,-0.214,-0.2132,-0.2116,-0.2107,-0.2097,-0.2085,-0.2074,-0.2068,-0.2053,-0.2054,-0.2046,-0.2038,-0.2038,-0.2036,-0.203,-0.2035,-0.2044,-0.2044,-0.2033,-0.2033,-0.2033,0,-0.2225,-0.2206,-0.2196,-0.2189,-0.2166,-0.2162,-0.2152,-0.2136,-0.2128,-0.2114,-0.2108,-0.2093,-0.2085,-0.2073,-0.2057,-0.2055,-0.2042,-0.2036,-0.2034,-0.2035,-0.2033,-0.2033,-0.204,-0.2029,-0.2029,-0.2029,-0.2029,0,-0.2233,-0.2227,-0.2203,-0.2197,-0.2189,-0.2172,-0.2165,-0.2153,-0.2138,-0.2129,-0.2114,-0.2106,-0.2086,-0.2074,-0.2061,-0.2049,-0.2046,-0.2038,-0.2035,-0.2039,-0.204,-0.2034,-0.2033,-0.2029,-0.2029,-0.2029,-0.2029,0,-0.2249,-0.2233,-0.2222,-0.2201,-0.2195,-0.219,-0.2171,-0.2164,-0.2151,-0.214,-0.2136,-0.2116,-0.2101,-0.2084,-0.2064,-0.2055,-0.2044,-0.204,-0.205,-0.2048,-0.2047,-0.2047,-0.2049,-0.2048,-0.2039,-0.2039,-0.2039,0,-0.2255,-0.225,-0.2228,-0.2221,-0.2211,-0.22,-0.2191,-0.2173,-0.2164,-0.2145,-0.214,-0.2124,-0.2111,-0.2088,-0.2071,-0.2055,-0.205,-0.2052,-0.2047,-0.2051,-0.2048,-0.2049,-0.2047,-0.2053,-0.2053,-0.2053,-0.2053,0,-0.2267,-0.2259,-0.2247,-0.2232,-0.2222,-0.2209,-0.2195,-0.219,-0.2169,-0.216,-0.2145,-0.2135,-0.2114,-0.2098,-0.2079,-0.2068,-0.2056,-0.2055,-0.2053,-0.2058,-0.2063,-0.2059,-0.2052,-0.2055,-0.2055,-0.2054,-0.2054,-0.2054,-0.2278,-0.2272,-0.2255,-0.2241,-0.2229,-0.2216,-0.2208,-0.2194,-0.2182,-0.2164,-0.2153,-0.2138,-0.212,-0.2094,-0.2083,-0.207,-0.2066,-0.2065,-0.2064,-0.2064,-0.2065,-0.2066,-0.2067,-0.2067,-0.2067,-0.2067,-0.2067,0,-0.2288,-0.2276,-0.2264,-0.2245,-0.2234,-0.2224,-0.2208,-0.22,-0.2187,-0.2171,-0.2158,-0.214,-0.2124,-0.2105,-0.2087,-0.208,-0.2075,-0.2076,-0.2076,-0.2074,-0.207,-0.2072,-0.2081,-0.2081,-0.2081,-0.2081,-0.2081,-0.2081,-0.2292,-0.2281,-0.227,-0.2252,-0.224,-0.2225,-0.2217,-0.2204,-0.2192,-0.2172,-0.2159,-0.2147,-0.2129,-0.211,-0.2094,-0.2089,-0.2083,-0.2086,-0.2079,-0.2075,-0.2074,-0.2073,-0.2075,-0.2085,-0.2085,-0.2084,-0.2084,-0.2084]},{"header":{"parameterUnit":"m.s-1","parameterCategory":1,"la1":30.2991,"la2":30.254,"lo1":-89.0895,"lo2":-89.0444,"dy":0.0017,"dx":0.0017,"nx":28,"ny":28,"refTime":"2025-11-06T03:00:00:Z","depth":0,"parameterNumber":3,"parameterNumberName":"V-component_of_WINDS"},"data":[0,0,0,0,0,0,0,0,0,0,0,0,0,0,0,0,0,0,0,0,0,0,0,0,0,0,0,0,0,0,0,0,0,0,0,0,0,0,0,0,0,0,0,0,0,0,0,0,0,0,0,0,0,0,0,0,0,0,3.8278,3.8279,0,3.832,3.832,3.8321,3.835,3.835,3.835,3.835,3.8391,3.8392,3.8393,0,0,0,0,0,0,0,0,0,0,0,0,0,3.8225,3.8226,3.8278,3.8279,3.8279,3.832,3.832,3.8321,3.835,3.835,3.835,3.8351,3.8391,3.8392,3.8393,0,0,0,0,0,0,0,0,0,0,0,0,0,3.8255,3.8226,3.8278,3.8299,3.8301,3.832,3.832,3.8321,3.835,3.835,3.835,3.8351,3.839,3.8392,3.8393,3.8394,0,0,3.8397,3.8397,0,0,0,0,0,0,0,0,3.8253,3.8257,3.8295,3.8297,3.83,3.833,3.8316,3.8345,3.835,3.8331,3.835,3.8351,3.837,3.8373,3.838,3.8396,3.8398,3.8397,3.8398,3.8398,3.8399,0,0,0,0,0,0,0,3.8251,3.8256,3.8295,3.8296,3.8298,3.8306,3.8311,3.8322,3.8348,3.8333,3.8335,3.834,3.8372,3.8379,3.8381,3.8398,3.8397,3.8398,3.8399,3.8399,3.8421,3.8421,0,0,0,0,0,0,3.8246,3.8254,3.8293,3.8296,3.8277,3.8307,3.8312,3.832,3.8348,3.8353,3.8339,3.8341,3.8376,3.838,3.8383,3.8389,3.8398,3.8399,3.84,3.8421,3.8421,3.8421,0,0,0,0,0,0,3.8245,3.8249,3.8292,3.8275,3.8281,3.8307,3.8316,3.8321,3.8328,3.8353,3.8358,3.8342,3.8377,3.8381,3.8392,3.839,3.84,3.8401,3.8422,3.8421,3.8421,3.8398,0,0,0,0,0,0,3.8243,3.8249,3.8249,3.8275,3.8282,3.8299,3.8316,3.8321,3.833,3.8333,3.8357,3.8361,3.8377,3.839,3.8393,3.8392,3.8402,3.8422,3.8421,3.8421,3.8399,3.8397,3.8395,0,0,0,0,0,3.8241,3.8239,3.8249,3.8253,3.8283,3.8299,3.8303,3.8323,3.833,3.8331,3.8348,3.836,3.839,3.8391,3.8395,3.8394,3.8422,3.8422,3.8421,3.84,3.8398,3.8395,0,0,0,0,0,0,3.821,3.8243,3.8254,3.826,3.8277,3.8304,3.8305,3.8319,3.8333,3.8335,3.8358,3.8363,3.8373,3.8384,3.8385,3.8399,3.8408,3.8408,3.839,3.8388,3.8386,3.8383,3.8403,0,0,0,0,0,3.8204,3.8215,3.8243,3.8246,3.8255,3.8279,3.8286,3.8301,3.8319,3.8325,3.8343,3.836,3.8374,3.8381,3.8395,3.8402,3.8409,3.8403,3.8402,3.84,3.84,3.8408,3.8406,3.8419,3.8419,3.8419,0,0,3.8191,3.8211,3.8216,3.8241,3.8255,3.8267,3.8284,3.8294,3.8304,3.8327,3.8339,3.8353,3.8373,3.8383,3.8388,3.8393,3.8398,3.8399,3.8398,3.8399,3.8407,3.8406,3.8405,3.8419,3.8419,3.8419,0,0,3.8175,3.819,3.8196,3.8211,3.8234,3.8251,3.8253,3.8279,3.8289,3.8303,3.8321,3.8333,3.8355,3.837,3.838,3.8374,3.8387,3.8378,3.8368,3.8375,3.8374,3.8373,3.8373,3.8373,3.8378,3.8378,3.8378,0,3.8156,3.8174,3.8197,3.8208,3.8219,3.8243,3.825,3.8264,3.8289,3.8297,3.8303,3.8334,3.8349,3.8364,3.8363,3.837,3.8374,3.8375,3.8373,3.8372,3.8372,3.8372,3.8372,3.8377,3.8377,3.8377,3.8377,0,3.8151,3.8164,3.8166,3.8193,3.8204,3.8213,3.8238,3.8247,3.8262,3.8278,3.8293,3.8313,3.8333,3.8338,3.835,3.8356,3.8359,3.8368,3.8378,3.8369,3.837,3.837,3.8375,3.8376,3.8376,3.8376,0,0,3.8113,3.8155,3.8156,3.817,3.8199,3.8209,3.8221,3.8241,3.825,3.8268,3.8279,3.8299,3.831,3.8322,3.8337,3.8343,3.8341,3.8353,3.8354,3.8351,3.8351,3.8344,3.8344,3.835,3.835,3.835,3.835,0,3.8102,3.8123,3.8146,3.816,3.8173,3.8198,3.8209,3.8228,3.8245,3.8259,3.8278,3.8293,3.8304,3.8313,3.832,3.8339,3.8341,3.834,3.8362,3.8362,3.8356,3.8344,3.8336,3.8334,3.835,3.835,3.835,0,3.809,3.811,3.8125,3.8157,3.8164,3.8172,3.8195,3.8208,3.8232,3.8244,3.826,3.8277,3.8292,3.8301,3.8323,3.8321,3.8332,3.8343,3.8344,3.8347,3.8356,3.8348,3.8334,3.8334,3.8351,3.8351,3.8351,0,3.8063,3.8093,3.8107,3.8118,3.8155,3.8161,3.8177,3.8201,3.8214,3.8234,3.8243,3.8264,3.8276,3.8292,3.8316,3.832,3.8336,3.8346,3.8348,3.8347,3.8349,3.8349,3.8338,3.8355,3.8355,3.8355,3.8355,0,3.8048,3.8057,3.8096,3.8105,3.8117,3.8144,3.8155,3.8173,3.8196,3.8209,3.8232,3.8244,3.8274,3.8291,3.8309,3.8326,3.833,3.8342,3.8347,3.834,3.8339,3.8347,3.8348,3.8355,3.8355,3.8355,3.8355,0,3.8019,3.8046,3.8063,3.8098,3.8107,3.8115,3.8145,3.8155,3.8175,3.8192,3.8198,3.8229,3.825,3.8275,3.8303,3.8316,3.8332,3.8338,3.8324,3.8327,3.8328,3.8328,3.8323,3.8325,3.8339,3.8339,3.8339,0,3.8008,3.8016,3.8053,3.8065,3.808,3.8098,3.8112,3.814,3.8154,3.8184,3.8191,3.8214,3.8234,3.8267,3.8292,3.8315,3.8323,3.832,3.8327,3.8321,3.8325,3.8325,3.8327,3.8318,3.8318,3.8318,3.8318,0,3.7986,3.8,3.802,3.8045,3.8061,3.8082,3.8103,3.8112,3.8145,3.8159,3.8182,3.8198,3.8229,3.8252,3.828,3.8296,3.8313,3.8316,3.8318,3.8311,3.8303,3.831,3.832,3.8315,3.8316,3.8316,3.8316,3.8316,3.7967,3.7977,3.8006,3.8027,3.8048,3.8068,3.8081,3.8104,3.8124,3.8152,3.8168,3.8191,3.8218,3.8257,3.8273,3.8293,3.8298,3.83,3.8301,3.8301,3.8301,3.83,3.8297,3.8297,3.8298,3.8298,3.8298,0,3.7948,3.7969,3.7989,3.802,3.8038,3.8054,3.808,3.8094,3.8114,3.8139,3.8159,3.8187,3.8211,3.824,3.8266,3.8277,3.8285,3.8283,3.8282,3.8287,3.8293,3.8289,3.8275,3.8275,3.8275,3.8275,3.8275,3.8275,3.794,3.7959,3.7976,3.8006,3.8027,3.8051,3.8065,3.8085,3.8105,3.8136,3.8156,3.8176,3.8203,3.8232,3.8256,3.8264,3.8273,3.8268,3.8279,3.8284,3.8286,3.8287,3.8284,3.827,3.827,3.8271,3.8271,3.8271]}]]